Time,TemperatureF,DewpointF,PressureIn,WindDirection,WindDirectionDegrees,WindSpeedMPH,WindSpeedGustMPH,Humidity,HourlyPrecipIn,Conditions,Clouds,dailyrainin,SoftwareType,DateUTC
2013-07-06 00:00:00,72.4,70.9,30.02,SSW,213,0.0,4.0,95,0.00,,,0.00,Wunderground v.1.15,2013-07-06 04:00:00,
2013-07-06 00:05:00,72.4,70.9,30.03,SSW,213,0.0,4.0,95,0.00,,,0.00,Wunderground v.1.15,2013-07-06 04:05:00,
2013-07-06 00:10:00,72.3,71.1,30.03,SSW,213,0.0,4.0,96,0.00,,,0.00,Wunderground v.1.15,2013-07-06 04:10:00,
2013-07-06 00:15:00,72.4,71.2,30.03,SSW,213,0.0,4.0,96,0.00,,,0.00,Wunderground v.1.15,2013-07-06 04:15:00,
2013-07-06 00:20:00,72.4,71.2,30.04,SSW,213,0.0,4.0,96,0.00,,,0.00,Wunderground v.1.15,2013-07-06 04:20:00,
2013-07-06 00:25:00,72.3,71.1,30.04,SSW,213,0.0,4.0,96,0.00,,,0.00,Wunderground v.1.15,2013-07-06 04:25:00,
2013-07-06 00:30:00,72.2,71.0,30.04,SSW,213,0.0,4.0,96,0.00,,,0.00,Wunderground v.1.15,2013-07-06 04:30:00,
2013-07-06 00:40:00,72.3,71.1,30.04,SSW,213,0.0,4.0,96,0.00,,,0.00,Wunderground v.1.15,2013-07-06 04:40:00,
2013-07-06 00:45:00,72.2,71.0,30.04,SSW,213,0.0,4.0,96,0.00,,,0.00,Wunderground v.1.15,2013-07-06 04:45:00,
2013-07-06 00:50:00,72.1,70.9,30.04,SSW,213,0.0,4.0,96,0.00,,,0.00,Wunderground v.1.15,2013-07-06 04:50:00,
2013-07-06 00:55:00,72.0,70.8,30.04,SSW,213,0.0,4.0,96,0.00,,,0.00,Wunderground v.1.15,2013-07-06 04:55:00,
2013-07-06 01:00:00,71.9,70.7,30.04,SSW,213,0.0,4.0,96,0.00,,,0.00,Wunderground v.1.15,2013-07-06 05:00:00,
2013-07-06 01:05:00,71.9,71.0,30.04,SSW,213,0.0,4.0,97,0.00,,,0.00,Wunderground v.1.15,2013-07-06 05:05:00,
2013-07-06 01:15:00,72.0,71.1,30.04,SSW,213,0.0,4.0,97,0.00,,,0.00,Wunderground v.1.15,2013-07-06 05:15:00,
2013-07-06 01:20:00,72.1,71.2,30.03,SSW,213,0.0,4.0,97,0.00,,,0.00,Wunderground v.1.15,2013-07-06 05:20:00,
2013-07-06 01:25:00,72.1,71.2,30.03,SSW,213,0.0,4.0,97,0.00,,,0.00,Wunderground v.1.15,2013-07-06 05:25:00,
2013-07-06 01:30:00,72.1,71.2,30.04,SSW,213,0.0,4.0,97,0.00,,,0.00,Wunderground v.1.15,2013-07-06 05:30:00,
2013-07-06 01:35:00,72.0,71.1,30.03,SSW,213,0.0,4.0,97,0.00,,,0.00,Wunderground v.1.15,2013-07-06 05:35:00,
2013-07-06 01:45:00,72.1,71.2,30.03,SSW,213,0.0,4.0,97,0.00,,,0.00,Wunderground v.1.15,2013-07-06 05:45:00,
2013-07-06 01:50:00,72.0,71.1,30.03,SSW,213,0.0,4.0,97,0.00,,,0.00,Wunderground v.1.15,2013-07-06 05:50:00,
2013-07-06 01:55:00,72.0,71.1,30.03,SSW,213,0.0,4.0,97,0.00,,,0.00,Wunderground v.1.15,2013-07-06 05:55:00,
2013-07-06 02:00:00,71.9,71.0,30.03,SSW,213,0.0,4.0,97,0.00,,,0.00,Wunderground v.1.15,2013-07-06 06:00:00,
2013-07-06 02:05:00,71.9,71.0,30.02,SSW,213,0.0,4.0,97,0.00,,,0.00,Wunderground v.1.15,2013-07-06 06:05:00,
2013-07-06 02:10:00,71.9,71.0,30.03,SSW,213,0.0,4.0,97,0.00,,,0.00,Wunderground v.1.15,2013-07-06 06:10:00,
2013-07-06 02:20:00,71.7,70.8,30.03,SSW,213,0.0,4.0,97,0.00,,,0.00,Wunderground v.1.15,2013-07-06 06:20:00,
2013-07-06 02:25:00,71.7,70.8,30.03,SSW,213,0.0,4.0,97,0.00,,,0.00,Wunderground v.1.15,2013-07-06 06:25:00,
2013-07-06 02:30:00,71.8,71.2,30.03,SSW,213,0.0,4.0,98,0.00,,,0.00,Wunderground v.1.15,2013-07-06 06:30:00,
2013-07-06 02:35:00,71.6,70.7,30.03,SSW,213,0.0,4.0,97,0.00,,,0.00,Wunderground v.1.15,2013-07-06 06:35:00,
2013-07-06 02:40:00,71.7,71.1,30.03,SSW,213,0.0,4.0,98,0.00,,,0.00,Wunderground v.1.15,2013-07-06 06:40:00,
2013-07-06 02:50:00,71.5,70.9,30.02,SSW,213,0.0,4.0,98,0.00,,,0.00,Wunderground v.1.15,2013-07-06 06:50:00,
2013-07-06 02:55:00,71.5,70.6,30.03,SSW,213,0.0,4.0,97,0.00,,,0.00,Wunderground v.1.15,2013-07-06 06:55:00,
2013-07-06 03:00:00,71.3,70.4,30.03,SSW,213,0.0,4.0,97,0.00,,,0.00,Wunderground v.1.15,2013-07-06 07:00:00,
2013-07-06 03:05:00,71.3,70.7,30.03,SSW,213,0.0,4.0,98,0.00,,,0.00,Wunderground v.1.15,2013-07-06 07:05:00,
2013-07-06 03:10:00,71.2,70.6,30.03,SSW,213,0.0,4.0,98,0.00,,,0.00,Wunderground v.1.15,2013-07-06 07:10:00,
2013-07-06 03:20:00,71.3,70.4,30.03,SW,214,1.0,4.0,97,0.00,,,0.00,Wunderground v.1.15,2013-07-06 07:20:00,
2013-07-06 03:25:00,71.1,70.5,30.03,SW,215,0.0,4.0,98,0.00,,,0.00,Wunderground v.1.15,2013-07-06 07:25:00,
2013-07-06 03:30:00,71.3,70.7,30.03,SW,217,1.0,1.0,98,0.00,,,0.00,Wunderground v.1.15,2013-07-06 07:30:00,
2013-07-06 03:40:00,71.2,70.6,30.03,SW,217,0.0,4.0,98,0.00,,,0.00,Wunderground v.1.15,2013-07-06 07:40:00,
2013-07-06 03:45:00,71.0,70.4,30.03,SW,217,0.0,4.0,98,0.00,,,0.00,Wunderground v.1.15,2013-07-06 07:45:00,
2013-07-06 03:50:00,71.0,70.4,30.02,SW,217,0.0,4.0,98,0.00,,,0.00,Wunderground v.1.15,2013-07-06 07:50:00,
2013-07-06 04:00:00,70.9,70.3,30.02,SW,217,0.0,4.0,98,0.00,,,0.00,Wunderground v.1.15,2013-07-06 08:00:00,
2013-07-06 04:05:00,70.8,70.2,30.02,SW,217,0.0,4.0,98,0.00,,,0.00,Wunderground v.1.15,2013-07-06 08:05:00,
2013-07-06 04:10:00,70.8,70.2,30.02,SW,217,0.0,4.0,98,0.00,,,0.00,Wunderground v.1.15,2013-07-06 08:10:00,
2013-07-06 04:15:00,70.8,70.2,30.02,SW,217,0.0,4.0,98,0.00,,,0.00,Wunderground v.1.15,2013-07-06 08:15:00,
2013-07-06 04:20:00,70.8,70.2,30.02,SW,217,0.0,4.0,98,0.00,,,0.00,Wunderground v.1.15,2013-07-06 08:20:00,
2013-07-06 04:30:00,70.8,70.2,30.03,SW,217,0.0,4.0,98,0.00,,,0.00,Wunderground v.1.15,2013-07-06 08:30:00,
2013-07-06 04:35:00,70.8,70.2,30.03,SW,217,0.0,4.0,98,0.00,,,0.00,Wunderground v.1.15,2013-07-06 08:35:00,
2013-07-06 04:40:00,71.2,70.9,30.03,NE,38,0.0,4.0,99,0.00,,,0.00,Wunderground v.1.15,2013-07-06 08:40:00,
2013-07-06 04:45:00,71.3,71.0,30.03,NE,39,0.0,4.0,99,0.00,,,0.00,Wunderground v.1.15,2013-07-06 08:45:00,
2013-07-06 04:50:00,71.2,70.6,30.03,NE,39,0.0,4.0,98,0.00,,,0.00,Wunderground v.1.15,2013-07-06 08:50:00,
2013-07-06 04:55:00,71.2,70.6,30.03,NE,39,0.0,4.0,98,0.00,,,0.00,Wunderground v.1.15,2013-07-06 08:55:00,
2013-07-06 05:05:00,70.9,70.3,30.03,NE,39,0.0,4.0,98,0.00,,,0.00,Wunderground v.1.15,2013-07-06 09:05:00,
2013-07-06 05:10:00,70.8,70.2,30.03,NE,39,0.0,4.0,98,0.00,,,0.00,Wunderground v.1.15,2013-07-06 09:10:00,
2013-07-06 05:15:00,70.8,70.2,30.03,NE,39,0.0,4.0,98,0.00,,,0.00,Wunderground v.1.15,2013-07-06 09:15:00,
2013-07-06 05:20:00,70.8,70.2,30.03,NE,39,0.0,4.0,98,0.00,,,0.00,Wunderground v.1.15,2013-07-06 09:20:00,
2013-07-06 05:25:00,70.7,70.1,30.03,NE,39,0.0,4.0,98,0.00,,,0.00,Wunderground v.1.15,2013-07-06 09:25:00,
2013-07-06 05:35:00,70.7,70.1,30.03,NE,39,0.0,4.0,98,0.00,,,0.00,Wunderground v.1.15,2013-07-06 09:35:00,
2013-07-06 05:40:00,70.8,70.5,30.03,NE,39,0.0,4.0,99,0.00,,,0.00,Wunderground v.1.15,2013-07-06 09:40:00,
2013-07-06 05:45:00,70.8,70.5,30.03,NE,39,0.0,4.0,99,0.00,,,0.00,Wunderground v.1.15,2013-07-06 09:45:00,
2013-07-06 05:50:00,70.9,70.6,30.03,NE,39,0.0,4.0,99,0.00,,,0.00,Wunderground v.1.15,2013-07-06 09:50:00,
2013-07-06 05:55:00,70.8,70.5,30.03,NE,39,0.0,4.0,99,0.00,,,0.00,Wunderground v.1.15,2013-07-06 09:55:00,
2013-07-06 06:00:00,70.9,70.6,30.03,NE,39,0.0,4.0,99,0.00,,,0.00,Wunderground v.1.15,2013-07-06 10:00:00,
2013-07-06 06:10:00,71.2,70.9,30.03,NE,39,0.0,4.0,99,0.00,,,0.00,Wunderground v.1.15,2013-07-06 10:10:00,
2013-07-06 06:15:00,71.6,71.3,30.03,NE,38,0.0,4.0,99,0.00,,,0.00,Wunderground v.1.15,2013-07-06 10:15:00,
2013-07-06 06:20:00,72.2,71.9,30.03,WSW,239,1.0,4.0,99,0.00,,,0.00,Wunderground v.1.15,2013-07-06 10:20:00,
2013-07-06 06:25:00,72.4,72.1,30.03,WSW,239,2.0,4.0,99,0.00,,,0.00,Wunderground v.1.15,2013-07-06 10:25:00,
2013-07-06 06:30:00,72.7,72.4,30.03,WSW,239,1.0,4.0,99,0.00,,,0.00,Wunderground v.1.15,2013-07-06 10:30:00,
2013-07-06 06:40:00,73.2,72.6,30.03,WSW,239,1.0,4.0,98,0.00,,,0.00,Wunderground v.1.15,2013-07-06 10:40:00,
2013-07-06 06:45:00,73.8,73.2,30.04,WSW,239,1.0,4.0,98,0.00,,,0.00,Wunderground v.1.15,2013-07-06 10:45:00,
2013-07-06 06:50:00,74.3,73.7,30.04,WSW,238,0.0,4.0,98,0.00,,,0.00,Wunderground v.1.15,2013-07-06 10:50:00,
2013-07-06 06:55:00,74.7,73.8,30.04,WSW,238,1.0,4.0,97,0.00,,,0.00,Wunderground v.1.15,2013-07-06 10:55:00,
2013-07-06 07:05:00,75.2,73.7,30.04,SW,235,2.0,4.0,95,0.00,,,0.00,Wunderground v.1.15,2013-07-06 11:05:00,
2013-07-06 07:10:00,75.4,73.6,30.04,WSW,241,2.0,4.0,94,0.00,,,0.00,Wunderground v.1.15,2013-07-06 11:10:00,
2013-07-06 07:15:00,75.6,73.4,30.04,WSW,238,2.0,4.0,93,0.00,,,0.00,Wunderground v.1.15,2013-07-06 11:15:00,
2013-07-06 07:25:00,76.2,73.7,30.04,West,277,1.0,4.0,92,0.00,,,0.00,Wunderground v.1.15,2013-07-06 11:25:00,
2013-07-06 07:30:00,76.5,73.7,30.04,West,263,1.0,4.0,91,0.00,,,0.00,Wunderground v.1.15,2013-07-06 11:30:00,
2013-07-06 07:35:00,77.0,73.8,30.04,West,269,1.0,4.0,90,0.00,,,0.00,Wunderground v.1.15,2013-07-06 11:35:00,
2013-07-06 07:40:00,77.5,73.7,30.04,WSW,257,2.0,2.0,88,0.00,,,0.00,Wunderground v.1.15,2013-07-06 11:40:00,
2013-07-06 07:50:00,78.6,74.4,30.03,West,265,2.0,2.0,87,0.00,,,0.00,Wunderground v.1.15,2013-07-06 11:50:00,
2013-07-06 07:55:00,78.9,74.0,30.03,NNW,348,1.0,4.0,85,0.00,,,0.00,Wunderground v.1.15,2013-07-06 11:55:00,
2013-07-06 08:00:00,79.1,73.8,30.04,WNW,293,2.0,4.0,84,0.00,,,0.00,Wunderground v.1.15,2013-07-06 12:00:00,
2013-07-06 08:05:00,79.2,73.9,30.03,NW,304,4.0,5.0,84,0.00,,,0.00,Wunderground v.1.15,2013-07-06 12:05:00,
2013-07-06 08:10:00,79.4,74.1,30.04,WNW,296,4.0,6.0,84,0.00,,,0.00,Wunderground v.1.15,2013-07-06 12:10:00,
2013-07-06 08:20:00,80.3,74.3,30.03,WNW,286,3.0,4.0,82,0.00,,,0.00,Wunderground v.1.15,2013-07-06 12:20:00,
2013-07-06 08:25:00,80.5,73.8,30.03,WNW,294,3.0,6.0,80,0.00,,,0.00,Wunderground v.1.15,2013-07-06 12:25:00,
2013-07-06 08:30:00,80.6,74.2,30.04,West,263,4.0,4.0,81,0.00,,,0.00,Wunderground v.1.15,2013-07-06 12:30:00,
2013-07-06 08:35:00,80.6,73.9,30.03,NNW,341,5.0,5.0,80,0.00,,,0.00,Wunderground v.1.15,2013-07-06 12:35:00,
2013-07-06 08:40:00,80.7,74.3,30.03,West,270,5.0,5.0,81,0.00,,,0.00,Wunderground v.1.15,2013-07-06 12:40:00,
2013-07-06 08:45:00,81.2,74.8,30.03,West,281,4.0,5.0,81,0.00,,,0.00,Wunderground v.1.15,2013-07-06 12:45:00,
2013-07-06 08:55:00,81.5,74.0,30.03,WNW,293,3.0,4.0,78,0.00,,,0.00,Wunderground v.1.15,2013-07-06 12:55:00,
2013-07-06 09:00:00,82.0,74.8,30.03,West,267,3.0,5.0,79,0.00,,,0.00,Wunderground v.1.15,2013-07-06 13:00:00,
2013-07-06 09:05:00,82.1,74.2,30.03,NW,311,3.0,5.0,77,0.00,,,0.00,Wunderground v.1.15,2013-07-06 13:05:00,
2013-07-06 09:10:00,82.4,73.7,30.02,NNW,340,4.0,4.0,75,0.00,,,0.00,Wunderground v.1.15,2013-07-06 13:10:00,
2013-07-06 09:15:00,83.0,74.3,30.02,West,275,2.0,4.0,75,0.00,,,0.00,Wunderground v.1.15,2013-07-06 13:15:00,
2013-07-06 09:25:00,83.2,73.2,30.02,WNW,286,4.0,5.0,72,0.00,,,0.00,Wunderground v.1.15,2013-07-06 13:25:00,
2013-07-06 09:30:00,83.3,73.3,30.02,West,262,4.0,4.0,72,0.00,,,0.00,Wunderground v.1.15,2013-07-06 13:30:00,
2013-07-06 09:35:00,83.5,73.5,30.02,West,262,4.0,9.0,72,0.00,,,0.00,Wunderground v.1.15,2013-07-06 13:35:00,
2013-07-06 09:40:00,83.6,73.2,30.02,NW,307,4.0,4.0,71,0.00,,,0.00,Wunderground v.1.15,2013-07-06 13:40:00,
2013-07-06 09:45:00,84.0,73.2,30.02,WNW,301,4.0,4.0,70,0.00,,,0.00,Wunderground v.1.15,2013-07-06 13:45:00,
2013-07-06 09:50:00,83.7,72.9,30.02,North,350,4.0,4.0,70,0.00,,,0.00,Wunderground v.1.15,2013-07-06 13:50:00,
2013-07-06 10:00:00,83.9,73.1,30.01,WSW,241,4.0,4.0,70,0.00,,,0.00,Wunderground v.1.15,2013-07-06 14:00:00,
2013-07-06 10:05:00,84.0,73.6,30.01,West,265,3.0,6.0,71,0.00,,,0.00,Wunderground v.1.15,2013-07-06 14:05:00,
2013-07-06 10:10:00,84.2,73.8,30.01,SW,219,4.0,5.0,71,0.00,,,0.00,Wunderground v.1.15,2013-07-06 14:10:00,
2013-07-06 10:15:00,84.4,73.5,30.01,West,273,5.0,5.0,70,0.00,,,0.00,Wunderground v.1.15,2013-07-06 14:15:00,
2013-07-06 10:20:00,84.4,73.5,30.01,West,277,5.0,6.0,70,0.00,,,0.00,Wunderground v.1.15,2013-07-06 14:20:00,
2013-07-06 10:30:00,84.5,73.2,30.01,WNW,296,5.0,5.0,69,0.00,,,0.00,Wunderground v.1.15,2013-07-06 14:30:00,
2013-07-06 10:35:00,84.6,73.3,30.01,WNW,298,5.0,5.0,69,0.00,,,0.00,Wunderground v.1.15,2013-07-06 14:35:00,
2013-07-06 10:40:00,84.7,72.5,30.01,West,274,5.0,10.0,67,0.00,,,0.00,Wunderground v.1.15,2013-07-06 14:40:00,
2013-07-06 10:45:00,85.3,73.5,30.01,WSW,250,6.0,10.0,68,0.00,,,0.00,Wunderground v.1.15,2013-07-06 14:45:00,
2013-07-06 10:50:00,85.1,72.5,30.01,WNW,282,7.0,7.0,66,0.00,,,0.00,Wunderground v.1.15,2013-07-06 14:50:00,
2013-07-06 11:00:00,84.6,72.4,30.01,WSW,257,6.0,6.0,67,0.00,,,0.00,Wunderground v.1.15,2013-07-06 15:00:00,
2013-07-06 11:05:00,84.9,72.3,30.01,NNW,333,6.0,6.0,66,0.00,,,0.00,Wunderground v.1.15,2013-07-06 15:05:00,
2013-07-06 11:10:00,85.1,71.5,30.01,NNW,327,5.0,5.0,64,0.00,,,0.00,Wunderground v.1.15,2013-07-06 15:10:00,
2013-07-06 11:20:00,85.2,72.6,30.00,West,261,6.0,6.0,66,0.00,,,0.00,Wunderground v.1.15,2013-07-06 15:20:00,
2013-07-06 11:25:00,85.6,72.5,30.00,West,275,5.0,6.0,65,0.00,,,0.00,Wunderground v.1.15,2013-07-06 15:25:00,
2013-07-06 11:30:00,85.9,72.8,30.00,WSW,242,5.0,6.0,65,0.00,,,0.00,Wunderground v.1.15,2013-07-06 15:30:00,
2013-07-06 11:35:00,86.1,72.5,30.00,West,277,5.0,6.0,64,0.00,,,0.00,Wunderground v.1.15,2013-07-06 15:35:00,
2013-07-06 11:40:00,86.0,72.4,30.00,West,280,5.0,7.0,64,0.00,,,0.00,Wunderground v.1.15,2013-07-06 15:40:00,
2013-07-06 11:45:00,86.2,72.1,30.00,West,269,6.0,7.0,63,0.00,,,0.00,Wunderground v.1.15,2013-07-06 15:45:00,
2013-07-06 11:50:00,86.1,72.5,30.00,NNW,336,6.0,6.0,64,0.00,,,0.00,Wunderground v.1.15,2013-07-06 15:50:00,
2013-07-06 11:55:00,86.0,71.9,30.00,WSW,248,5.0,6.0,63,0.00,,,0.00,Wunderground v.1.15,2013-07-06 15:55:00,
2013-07-06 12:00:00,86.2,72.6,30.00,West,262,6.0,6.0,64,0.00,,,0.00,Wunderground v.1.15,2013-07-06 16:00:00,
2013-07-06 12:15:00,86.1,72.5,30.00,West,268,6.0,6.0,64,0.00,,,0.00,Wunderground v.1.15,2013-07-06 16:15:00,
2013-07-06 12:20:00,86.2,72.6,30.00,West,267,6.0,6.0,64,0.00,,,0.00,Wunderground v.1.15,2013-07-06 16:20:00,
2013-07-06 12:25:00,86.5,72.4,30.00,West,265,5.0,6.0,63,0.00,,,0.00,Wunderground v.1.15,2013-07-06 16:25:00,
2013-07-06 12:30:00,86.4,72.8,30.00,West,273,5.0,6.0,64,0.00,,,0.00,Wunderground v.1.15,2013-07-06 16:30:00,
2013-07-06 12:35:00,86.2,72.1,30.00,NW,311,7.0,8.0,63,0.00,,,0.00,Wunderground v.1.15,2013-07-06 16:35:00,
2013-07-06 12:45:00,87.0,72.9,30.00,West,275,3.0,5.0,63,0.00,,,0.00,Wunderground v.1.15,2013-07-06 16:45:00,
2013-07-06 12:50:00,86.1,72.5,30.00,West,279,4.0,6.0,64,0.00,,,0.00,Wunderground v.1.15,2013-07-06 16:50:00,
2013-07-06 12:55:00,85.8,73.1,30.00,WNW,301,4.0,6.0,66,0.00,,,0.00,Wunderground v.1.15,2013-07-06 16:55:00,
2013-07-06 13:15:00,85.6,73.4,30.00,WSW,244,3.0,4.0,67,0.00,,,0.00,Wunderground v.1.15,2013-07-06 17:15:00,
2013-07-06 13:25:00,85.9,72.8,30.00,West,270,4.0,9.0,65,0.00,,,0.00,Wunderground v.1.15,2013-07-06 17:25:00,
2013-07-06 13:30:00,86.0,72.9,30.00,West,272,5.0,5.0,65,0.00,,,0.00,Wunderground v.1.15,2013-07-06 17:30:00,
2013-07-06 13:40:00,86.4,73.7,29.99,WSW,251,4.0,6.0,66,0.00,,,0.00,Wunderground v.1.15,2013-07-06 17:40:00,
2013-07-06 13:45:00,86.5,73.3,29.99,WSW,253,4.0,6.0,65,0.00,,,0.00,Wunderground v.1.15,2013-07-06 17:45:00,
2013-07-06 13:50:00,86.6,73.0,29.99,SW,229,5.0,5.0,64,0.00,,,0.00,Wunderground v.1.15,2013-07-06 17:50:00,
2013-07-06 13:55:00,86.7,72.1,29.99,WNW,300,5.0,8.0,62,0.00,,,0.00,Wunderground v.1.15,2013-07-06 17:55:00,
2013-07-06 14:05:00,87.5,72.4,29.98,WSW,238,5.0,8.0,61,0.00,,,0.00,Wunderground v.1.15,2013-07-06 18:05:00,
2013-07-06 14:10:00,87.5,71.9,29.98,West,262,4.0,9.0,60,0.00,,,0.00,Wunderground v.1.15,2013-07-06 18:10:00,
2013-07-06 14:20:00,87.1,72.5,29.98,WSW,249,4.0,5.0,62,0.00,,,0.00,Wunderground v.1.15,2013-07-06 18:20:00,
2013-07-06 14:25:00,86.7,71.2,29.98,WNW,285,5.0,6.0,60,0.00,,,0.00,Wunderground v.1.15,2013-07-06 18:25:00,
2013-07-06 14:35:00,86.6,71.5,29.98,WNW,285,5.0,5.0,61,0.00,,,0.00,Wunderground v.1.15,2013-07-06 18:35:00,
2013-07-06 14:45:00,86.8,73.2,29.98,WSW,248,4.0,5.0,64,0.00,,,0.00,Wunderground v.1.15,2013-07-06 18:45:00,
2013-07-06 14:50:00,86.9,72.8,29.98,SW,229,4.0,5.0,63,0.00,,,0.00,Wunderground v.1.15,2013-07-06 18:50:00,
2013-07-06 15:00:00,86.9,73.7,29.97,WSW,240,4.0,5.0,65,0.00,,,0.00,Wunderground v.1.15,2013-07-06 19:00:00,
2013-07-06 15:20:00,86.6,74.8,29.96,West,261,5.0,5.0,68,0.00,,,0.00,Wunderground v.1.15,2013-07-06 19:20:00,
2013-07-06 15:35:00,87.6,73.9,29.96,SSW,198,3.0,4.0,64,0.00,,,0.00,Wunderground v.1.15,2013-07-06 19:35:00,
2013-07-06 15:50:00,87.4,73.7,29.96,SW,217,4.0,5.0,64,0.00,,,0.00,Wunderground v.1.15,2013-07-06 19:50:00,
2013-07-06 16:00:00,88.0,75.2,29.96,SSW,196,3.0,5.0,66,0.00,,,0.00,Wunderground v.1.15,2013-07-06 20:00:00,
2013-07-06 16:10:00,86.2,74.4,29.96,SSW,207,4.0,4.0,68,0.00,,,0.00,Wunderground v.1.15,2013-07-06 20:10:00,
2013-07-06 16:20:00,85.3,74.4,29.95,SSW,198,4.0,4.0,70,0.00,,,0.00,Wunderground v.1.15,2013-07-06 20:20:00,
2013-07-06 16:25:00,86.2,75.3,29.95,South,188,3.0,4.0,70,0.00,,,0.00,Wunderground v.1.15,2013-07-06 20:25:00,
2013-07-06 16:30:00,87.3,75.9,29.95,SSW,199,1.0,4.0,69,0.00,,,0.00,Wunderground v.1.15,2013-07-06 20:30:00,
2013-07-06 16:35:00,87.6,74.8,29.95,South,184,2.0,4.0,66,0.00,,,0.00,Wunderground v.1.15,2013-07-06 20:35:00,
2013-07-06 16:45:00,87.0,74.3,29.95,WSW,246,4.0,5.0,66,0.00,,,0.00,Wunderground v.1.15,2013-07-06 20:45:00,
2013-07-06 16:50:00,86.8,74.5,29.94,SW,219,5.0,5.0,67,0.00,,,0.00,Wunderground v.1.15,2013-07-06 20:50:00,
2013-07-06 16:55:00,87.3,74.5,29.94,WSW,252,5.0,5.0,66,0.00,,,0.00,Wunderground v.1.15,2013-07-06 20:55:00,
2013-07-06 17:00:00,87.3,73.6,29.94,WSW,243,4.0,5.0,64,0.00,,,0.00,Wunderground v.1.15,2013-07-06 21:00:00,
2013-07-06 17:10:00,86.9,73.7,29.93,WSW,238,6.0,8.0,65,0.00,,,0.00,Wunderground v.1.15,2013-07-06 21:10:00,
2013-07-06 17:25:00,86.1,73.4,29.93,SW,221,5.0,6.0,66,0.00,,,0.00,Wunderground v.1.15,2013-07-06 21:25:00,
2013-07-06 17:30:00,85.9,73.2,29.93,SSW,198,5.0,5.0,66,0.00,,,0.00,Wunderground v.1.15,2013-07-06 21:30:00,
2013-07-06 17:35:00,85.6,72.9,29.93,WSW,250,5.0,5.0,66,0.00,,,0.00,Wunderground v.1.15,2013-07-06 21:35:00,
2013-07-06 17:40:00,85.4,73.6,29.93,WSW,252,4.0,4.0,68,0.00,,,0.00,Wunderground v.1.15,2013-07-06 21:40:00,
2013-07-06 17:50:00,85.4,74.1,29.94,SW,234,2.0,4.0,69,0.00,,,0.00,Wunderground v.1.15,2013-07-06 21:50:00,
2013-07-06 17:55:00,85.1,73.8,29.94,WSW,242,2.0,4.0,69,0.00,,,0.00,Wunderground v.1.15,2013-07-06 21:55:00,
2013-07-06 18:00:00,84.9,73.6,29.94,SW,234,2.0,2.0,69,0.00,,,0.00,Wunderground v.1.15,2013-07-06 22:00:00,
2013-07-06 18:10:00,84.8,74.3,29.93,SW,234,0.0,4.0,71,0.00,,,0.00,Wunderground v.1.15,2013-07-06 22:10:00,
2013-07-06 18:15:00,84.7,74.3,29.94,SW,234,0.0,4.0,71,0.00,,,0.00,Wunderground v.1.15,2013-07-06 22:15:00,
2013-07-06 18:20:00,84.4,74.0,29.94,SW,227,1.0,4.0,71,0.00,,,0.00,Wunderground v.1.15,2013-07-06 22:20:00,
2013-07-06 18:30:00,83.8,74.2,29.94,WSW,238,2.0,6.0,73,0.00,,,0.00,Wunderground v.1.15,2013-07-06 22:30:00,
2013-07-06 18:40:00,83.8,74.6,29.94,NW,315,1.0,4.0,74,0.00,,,0.00,Wunderground v.1.15,2013-07-06 22:40:00,
2013-07-06 18:45:00,83.5,74.3,29.94,WNW,290,1.0,4.0,74,0.00,,,0.00,Wunderground v.1.15,2013-07-06 22:45:00,
2013-07-06 18:55:00,83.2,74.8,29.94,WNW,289,1.0,4.0,76,0.00,,,0.00,Wunderground v.1.15,2013-07-06 22:55:00,
2013-07-06 19:10:00,83.7,76.9,29.94,WNW,289,0.0,4.0,80,0.00,,,0.00,Wunderground v.1.15,2013-07-06 23:10:00,
2013-07-06 19:15:00,83.2,76.4,29.93,WNW,289,0.0,4.0,80,0.00,,,0.00,Wunderground v.1.15,2013-07-06 23:15:00,
2013-07-06 19:20:00,82.4,75.6,29.93,WNW,289,1.0,4.0,80,0.00,,,0.00,Wunderground v.1.15,2013-07-06 23:20:00,
2013-07-06 19:25:00,81.9,75.5,29.93,WNW,289,1.0,4.0,81,0.00,,,0.00,Wunderground v.1.15,2013-07-06 23:25:00,
2013-07-06 19:30:00,81.7,74.5,29.93,WNW,289,1.0,4.0,79,0.00,,,0.00,Wunderground v.1.15,2013-07-06 23:30:00,
2013-07-06 19:40:00,81.6,74.8,29.94,West,270,0.0,4.0,80,0.00,,,0.00,Wunderground v.1.15,2013-07-06 23:40:00,
2013-07-06 19:45:00,81.7,75.7,29.94,West,270,0.0,4.0,82,0.00,,,0.00,Wunderground v.1.15,2013-07-06 23:45:00,
2013-07-06 19:55:00,80.6,75.3,29.94,West,270,0.0,4.0,84,0.00,,,0.00,Wunderground v.1.15,2013-07-06 23:55:00,
2013-07-06 20:00:00,80.0,75.1,29.94,West,270,0.0,4.0,85,0.00,,,0.00,Wunderground v.1.15,2013-07-07 00:00:00,
2013-07-06 20:10:00,79.0,74.1,29.94,West,270,1.0,1.0,85,0.00,,,0.00,Wunderground v.1.15,2013-07-07 00:10:00,
2013-07-06 20:15:00,79.1,74.2,29.94,West,270,1.0,4.0,85,0.00,,,0.00,Wunderground v.1.15,2013-07-07 00:15:00,
2013-07-06 20:25:00,79.5,73.2,29.94,West,274,2.0,4.0,81,0.00,,,0.00,Wunderground v.1.15,2013-07-07 00:25:00,
2013-07-06 20:30:00,79.7,72.6,29.95,West,274,2.0,2.0,79,0.00,,,0.00,Wunderground v.1.15,2013-07-07 00:30:00,
2013-07-06 20:45:00,79.9,70.9,29.95,WNW,294,1.0,4.0,74,0.00,,,0.00,Wunderground v.1.15,2013-07-07 00:45:00,
2013-07-06 20:50:00,79.7,71.1,29.95,WNW,294,0.0,4.0,75,0.00,,,0.00,Wunderground v.1.15,2013-07-07 00:50:00,
2013-07-06 20:55:00,79.2,71.0,29.96,WSW,258,0.0,4.0,76,0.00,,,0.00,Wunderground v.1.15,2013-07-07 00:55:00,
2013-07-06 21:05:00,79.0,69.2,29.96,WSW,248,2.0,4.0,72,0.00,,,0.00,Wunderground v.1.15,2013-07-07 01:05:00,
2013-07-06 21:10:00,79.2,69.0,29.96,West,277,2.0,4.0,71,0.00,,,0.00,Wunderground v.1.15,2013-07-07 01:10:00,
2013-07-06 21:15:00,79.1,68.9,29.97,NNW,342,1.0,4.0,71,0.00,,,0.00,Wunderground v.1.15,2013-07-07 01:15:00,
2013-07-06 21:20:00,78.8,68.2,29.96,North,355,1.0,1.0,70,0.00,,,0.00,Wunderground v.1.15,2013-07-07 01:20:00,
2013-07-06 21:25:00,79.0,67.1,29.97,WNW,290,2.0,6.0,67,0.00,,,0.00,Wunderground v.1.15,2013-07-07 01:25:00,
2013-07-06 21:30:00,79.2,67.3,29.97,West,277,4.0,4.0,67,0.00,,,0.00,Wunderground v.1.15,2013-07-07 01:30:00,
2013-07-06 21:40:00,79.3,67.0,29.96,NNW,344,3.0,4.0,66,0.00,,,0.00,Wunderground v.1.15,2013-07-07 01:40:00,
2013-07-06 21:50:00,79.0,66.7,29.97,NE,46,3.0,3.0,66,0.00,,,0.00,Wunderground v.1.15,2013-07-07 01:50:00,
2013-07-06 22:05:00,78.4,66.1,29.97,NNW,345,2.0,4.0,66,0.00,,,0.00,Wunderground v.1.15,2013-07-07 02:05:00,
2013-07-06 22:10:00,78.2,65.9,29.97,WNW,296,2.0,4.0,66,0.00,,,0.00,Wunderground v.1.15,2013-07-07 02:10:00,
2013-07-06 22:25:00,77.4,66.8,29.98,NW,325,0.0,4.0,70,0.00,,,0.00,Wunderground v.1.15,2013-07-07 02:25:00,
2013-07-06 22:35:00,74.8,66.0,29.97,West,277,2.0,4.0,74,0.00,,,0.00,Wunderground v.1.15,2013-07-07 02:35:00,
2013-07-06 22:50:00,76.5,65.1,29.98,NNW,344,2.0,2.0,68,0.00,,,0.00,Wunderground v.1.15,2013-07-07 02:50:00,
2013-07-06 23:05:00,75.7,65.2,29.98,NNW,344,0.0,4.0,70,0.00,,,0.00,Wunderground v.1.15,2013-07-07 03:05:00,
2013-07-06 23:10:00,74.5,66.1,29.98,NNW,344,0.0,4.0,75,0.00,,,0.00,Wunderground v.1.15,2013-07-07 03:10:00,
2013-07-06 23:15:00,72.8,65.5,29.98,NNW,344,1.0,4.0,78,0.00,,,0.00,Wunderground v.1.15,2013-07-07 03:15:00,
2013-07-06 23:20:00,72.1,65.9,29.98,NNW,344,1.0,1.0,81,0.00,,,0.00,Wunderground v.1.15,2013-07-07 03:20:00,
2013-07-06 23:25:00,71.7,65.2,29.98,NNW,344,0.0,4.0,80,0.00,,,0.00,Wunderground v.1.15,2013-07-07 03:25:00,
2013-07-06 23:30:00,72.1,65.6,29.98,NNW,344,0.0,4.0,80,0.00,,,0.00,Wunderground v.1.15,2013-07-07 03:30:00,
2013-07-06 23:40:00,71.5,65.7,29.98,NNW,344,0.0,4.0,82,0.00,,,0.00,Wunderground v.1.15,2013-07-07 03:40:00,
2013-07-06 23:50:00,70.6,65.2,29.98,NNW,344,0.0,4.0,83,0.00,,,0.00,Wunderground v.1.15,2013-07-07 03:50:00,